Location: Newark
(41.4822°N, 81.6697°W)
Time: 07:04:37
(UTC+00:00)

Envisat - Visible Passes

Search period start: 26 August 2019 00:00
Search period end: 05 September 2019 00:00
Orbit: 764 x 766 km, 98.1° (Epoch: 25 August)

Date Brightness Start Highest point End Pass type
(mag) Time Alt. Az. Time Alt. Az. Time Alt. Az.
27 Aug 5.8 00:53:41 10° SW 00:57:11 19° W 01:00:41 10° NW visible
30 Aug 5.6 00:41:49 10° SW 00:45:50 23° W 00:49:52 10° NW visible
01 Sep 6.0 01:09:16 10° WSW 01:11:36 13° W 01:13:58 10° WNW visible
02 Sep 5.2 00:30:06 10° SSW 00:34:30 29° W 00:38:55 10° NW visible
04 Sep 5.9 00:57:00 10° SW 01:00:14 17° W 01:03:29 10° NW visible
